Theta_e
278 274 272 273 274 275 273 271 270 273 277 274 273 273 275 278 278 277 278 277 278 280 281 282 283 283 283 283 283 284 284 285 285 284 284 285 285 287 289 292 294 295 296 297
273 272 276 278 277 275 274 271 270 274 277 274 272 271 274 276 276 277 277 275 277 277 279 281 282 282 282 281 282 282 283 284 284 285 285 285 285 286 287 289 290 292 295 296
270 275 278 276 274 273 273 271 271 270 273 274 270 268 271 275 278 278 278 278 277 278 279 281 280 280 279 279 279 281 282 282 283 284 285 285 285 285 285 286 287 289 292 294
272 276 276 274 273 274 269 275 274 271 268 262 270 258 268 274 276 277 277 278 279 280 281 280 280 279 278 279 279 280 281 281 283 283 283 282 282 282 284 285 287 288 291 293
270 273 274 271 273 276 272 275 273 271 267 260 264 259 266 272 271 274 276 277 278 279 278 277 277 278 279 279 278 279 279 280 281 281 282 281 281 283 284 285 285 286 288 291
274 278 273 273 274 274 275 269 270 262 255 251 261 259 263 271 273 275 277 278 278 277 277 277 278 278 277 277 277 277 277 278 279 280 280 280 280 281 281 282 283 284 287 288
269 272 275 275 267 267 264 260 258 252 251 252 266 263 264 272 274 273 272 274 276 277 276 275 275 275 275 275 275 276 276 276 277 277 278 278 279 279 279 280 281 282 283 286
256 257 269 273 270 262 266 262 259 255 253 258 266 253 265 274 275 275 275 274 277 275 275 274 274 274 274 275 275 275 274 274 276 276 276 277 277 278 278 279 280 281 283 285
257 259 272 273 273 268 267 257 267 263 249 252 258 265 271 274 272 273 274 275 274 273 273 272 273 273 273 273 273 273 273 274 274 275 275 276 276 276 276 278 280 281 282 284
261 259 269 272 271 270 269 270 258 257 254 248 255 258 260 265 266 271 271 273 273 273 273 272 272 272 272 272 272 273 273 273 273 274 274 275 275 276 276 277 277 279 281 283
257 257 261 265 256 258 261 260 264 261 260 257 250 254 260 259 260 266 269 274 272 270 269 269 270 271 270 270 270 271 272 272 272 273 273 274 274 275 275 276 276 278 280 282
267 263 254 259 265 265 263 260 265 259 254 253 252 258 257 258 264 269 272 275 274 271 266 266 268 269 269 269 270 270 271 271 272 273 273 273 274 274 274 275 276 278 278 281
264 261 257 256 259 260 255 258 260 257 258 253 252 255 261 270 270 273 273 272 271 270 266 267 268 268 268 269 269 270 270 270 271 271 272 272 272 273 273 274 276 277 278 279
271 256 257 256 257 252 253 257 256 255 252 252 256 260 265 267 269 272 272 272 267 265 264 268 268 268 269 269 269 269 270 270 270 270 271 271 272 273 273 274 275 275 277 278
262 256 252 257 262 251 256 259 259 254 258 260 259 259 265 267 269 270 271 265 264 265 266 267 267 267 268 268 269 269 270 270 270 270 270 270 271 273 273 273 275 276 277 278
260 259 253 258 251 249 251 259 259 261 262 261 263 262 266 264 269 270 270 265 263 264 265 266 267 267 268 268 268 269 269 269 270 270 270 272 274 275 275 274 274 276 277 278
262 260 255 252 253 252 255 258 255 256 257 262 260 264 263 267 268 270 268 266 263 262 264 265 266 267 268 268 268 268 268 270 270 269 271 273 276 279 279 276 275 275 276 278
256 259 258 254 254 248 261 258 258 258 260 260 262 266 265 265 266 269 263 263 265 263 265 266 267 267 268 268 268 268 269 270 269 269 271 273 276 280 278 277 276 276 278 279
264 260 258 253 246 257 262 264 264 261 261 264 265 266 262 261 262 265 263 260 263 263 264 265 266 268 268 268 267 267 268 269 268 268 271 273 276 279 282 279 279 280 281 283
261 258 261 252 256 250 258 264 265 264 258 268 260 260 257 269 265 265 268 266 266 263 265 266 268 267 268 267 267 267 267 267 266 268 271 273 277 278 279 282 285 285 285 285
252 250 258 254 260 259 262 270 272 258 260 260 258 260 263 266 266 271 270 269 262 262 265 266 265 265 266 266 266 266 267 265 266 270 271 273 275 277 279 280 282 284 285 285
256 252 253 254 252 254 267 271 267 267 267 264 260 260 262 264 266 266 267 268 267 264 267 266 265 266 265 265 265 265 265 265 267 270 270 271 273 276 279 279 280 281 282 282
257 262 259 262 261 265 267 269 268 265 269 267 267 267 269 270 270 271 271 271 270 268 268 268 265 265 264 264 264 263 264 265 266 269 269 270 272 274 278 279 280 279 280 281
266 267 265 264 268 268 268 269 270 269 273 274 272 271 271 269 270 269 270 272 271 269 267 267 266 265 265 264 264 262 263 263 266 267 268 269 270 271 273 277 279 281 280 280
268 269 267 267 271 270 271 273 274 273 271 272 270 269 269 269 268 268 269 270 271 270 268 265 264 265 264 263 263 261 261 262 265 267 267 267 269 269 270 273 275 277 281 283
271 269 265 265 271 271 272 274 273 271 271 270 269 268 269 268 268 268 267 268 269 269 267 265 264 262 262 261 261 260 260 261 262 265 265 266 267 267 269 270 272 278 279 282
Wind_Speed
3 3 10 12 5 7 13 17 18 20 20 12 19 21 25 25 20 20 16 8 8 7 6 8 9 8 7 7 7 7 8 7 5 2 3 2 3 3 3 3 6 8 8 10
4 12 11 6 6 13 11 16 15 17 13 14 18 27 25 18 16 18 14 3 7 7 8 7 7 6 7 6 6 6 6 7 6 3 3 3 3 4 5 6 8 9 11 11
4 16 12 5 13 17 12 13 11 16 21 14 8 13 14 13 10 15 15 12 7 6 9 11 8 6 5 6 7 8 7 7 7 7 6 4 4 4 7 9 8 10 12 13
8 4 8 12 14 15 15 9 11 16 14 11 5 7 8 10 8 12 11 11 11 9 7 5 8 10 8 8 7 8 10 11 10 7 8 8 8 10 9 8 7 8 10 11
9 11 14 10 10 14 8 13 11 18 13 4 7 4 9 13 8 7 6 7 7 6 5 8 8 8 9 8 8 10 11 11 12 11 11 10 12 10 9 9 12 12 12 12
4 9 3 4 6 8 10 9 16 5 4 4 6 6 7 2 3 2 2 8 8 8 7 7 7 9 10 10 9 10 11 13 12 12 12 12 13 12 11 12 11 10 9 9
7 5 5 5 14 7 9 8 6 7 6 7 7 6 9 2 4 2 4 9 8 7 8 8 10 11 11 13 13 12 13 14 14 14 15 15 16 16 17 15 12 13 10 11
4 10 6 14 12 6 14 5 2 6 3 9 8 5 7 5 3 4 7 8 10 9 9 10 11 12 13 15 15 14 14 15 15 15 16 15 16 11 12 14 13 12 12 11
6 7 17 16 8 3 4 4 6 5 1 4 3 7 12 5 6 9 14 14 12 9 11 11 11 10 12 13 15 15 16 17 16 16 15 16 15 16 15 16 15 13 15 13
6 13 7 4 7 4 2 6 6 4 5 5 5 6 6 11 10 17 16 15 13 9 11 13 13 13 13 15 15 16 17 18 18 18 16 15 16 17 16 16 18 18 16 17
4 4 10 7 2 7 7 5 4 2 2 3 4 8 8 7 6 13 14 15 11 10 12 13 13 14 14 14 14 16 17 18 18 17 17 18 17 18 17 18 18 18 17 17
5 4 4 12 10 6 4 6 3 2 8 2 3 10 3 5 9 7 13 14 12 9 10 12 12 13 14 15 16 16 17 17 17 17 18 19 18 18 19 19 19 18 20 17
3 4 6 12 9 7 3 4 3 1 1 7 3 10 4 16 16 14 13 13 12 13 13 13 14 15 15 16 17 18 19 20 19 17 18 19 19 19 19 19 18 19 19 20
4 1 8 8 13 3 5 10 1 5 1 4 9 12 19 15 16 19 17 15 12 11 10 12 15 16 17 17 18 18 20 19 19 18 18 19 19 20 19 19 20 20 19 20
6 5 5 9 17 4 9 17 11 8 9 5 10 7 17 14 16 15 13 10 12 14 15 14 15 17 18 19 20 20 20 20 19 18 18 20 20 20 19 19 20 19 19 19
1 5 3 10 3 4 6 10 10 12 6 7 10 13 9 9 11 12 10 10 11 14 14 14 16 18 19 20 21 22 22 21 19 19 20 20 19 19 19 19 19 19 18 19
3 3 2 8 3 4 4 7 5 5 4 4 3 9 6 13 15 14 9 10 10 13 12 13 15 16 18 19 19 21 22 20 20 19 20 20 19 17 15 17 18 18 17 18
5 4 3 6 6 4 8 2 5 7 8 6 6 9 9 11 10 16 5 7 11 11 10 13 13 17 18 19 20 21 20 20 20 20 21 22 22 16 7 13 15 15 15 17
7 4 3 2 3 7 6 4 2 4 8 6 5 8 8 7 5 8 5 5 8 9 10 9 9 14 15 17 19 19 20 20 20 22 23 23 21 18 2 10 13 13 14 13
4 3 2 1 4 6 9 6 4 4 5 6 5 6 5 9 9 6 8 6 10 9 7 8 11 12 13 18 19 18 18 21 21 21 21 20 20 18 14 8 10 10 10 9
3 3 9 6 8 9 8 5 6 5 8 5 5 6 4 3 6 13 14 12 5 6 10 6 7 8 13 14 16 18 18 21 22 20 20 21 21 19 17 13 11 9 8 8
7 4 5 1 0 9 6 4 4 8 5 4 4 5 5 8 10 7 9 10 11 8 11 4 7 7 10 13 14 16 19 19 19 20 20 21 21 17 15 17 15 14 11 12
3 9 6 9 9 7 6 9 7 5 6 4 4 4 5 10 10 11 9 10 11 7 8 5 5 7 6 12 12 15 18 18 18 18 20 20 20 20 19 18 17 13 13 11
5 6 6 4 8 13 9 5 6 6 4 4 3 6 6 10 11 12 10 9 10 7 6 5 5 8 8 11 12 11 15 17 15 16 17 17 18 19 19 17 15 15 13 10
6 5 5 9 15 10 7 4 3 1 3 4 4 5 6 7 10 9 11 10 10 9 6 5 6 4 6 8 11 11 14 14 15 15 16 16 15 17 15 15 17 17 20 20
8 12 6 9 12 9 9 4 1 2 3 4 7 6 5 8 9 10 11 9 10 11 6 5 6 5 6 5 8 12 12 12 12 13 13 13 12 13 13 12 11 27 33 38
Wind_Direction
306 305 272 281 253 268 294 296 300 300 308 308 298 301 294 292 295 285 276 266 283 75 42 46 49 40 26 18 9 360 340 333 345 353 343 324 296 302 292 271 265 268 265 263
358 262 274 293 295 305 301 292 293 300 304 309 305 293 290 297 286 283 281 122 62 43 25 16 21 19 18 358 356 341 326 317 312 297 259 242 258 261 267 268 268 273 277 268
182 272 307 287 320 305 301 293 295 307 312 298 304 294 309 317 356 31 54 77 58 40 14 354 354 360 3 349 332 328 318 308 290 284 284 270 262 268 265 263 264 257 257 262
266 279 327 317 307 306 301 295 307 311 323 303 99 282 306 335 352 27 32 41 25 7 349 311 339 353 348 328 320 312 309 303 295 288 282 265 260 262 263 266 265 264 261 265
261 312 307 319 299 318 288 314 301 307 290 34 338 63 279 327 59 24 348 354 353 346 343 345 334 320 307 307 300 302 298 293 291 285 274 268 263 262 265 261 261 252 254 258
296 272 193 224 355 317 329 321 323 24 88 26 246 107 286 334 281 178 339 339 328 318 322 315 295 294 298 299 295 293 292 288 285 282 279 272 269 266 259 256 259 256 253 248
321 339 335 44 341 332 2 358 304 347 0 224 289 327 246 208 243 189 283 314 309 309 309 298 301 305 303 300 299 296 293 288 284 278 273 268 264 260 257 256 253 254 249 248
12 329 10 336 308 263 314 182 222 288 260 287 307 246 266 210 201 355 292 287 304 306 296 295 301 297 298 299 298 296 290 287 285 280 272 268 263 258 256 251 249 249 245 246
329 260 309 292 336 77 340 18 233 259 64 43 266 289 303 180 327 346 333 332 320 295 300 300 300 300 301 301 298 299 296 290 283 278 274 267 264 257 255 254 251 246 244 240
260 296 283 289 3 308 8 277 339 348 315 302 293 283 237 316 313 329 332 330 317 303 315 319 323 314 310 308 303 297 291 288 285 283 276 270 265 260 255 250 247 245 244 241
150 166 283 7 227 254 334 330 298 174 118 318 319 267 226 250 257 309 311 322 315 310 317 316 308 311 305 297 295 292 288 286 285 282 276 271 266 260 254 248 245 243 244 238
229 246 271 256 287 203 198 217 218 29 308 259 180 274 212 221 286 284 305 317 317 309 300 298 304 308 304 302 301 293 293 296 291 284 277 271 267 259 250 246 242 241 239 236
242 254 311 333 347 357 55 299 78 109 95 227 162 268 288 323 319 322 318 317 323 316 313 317 322 319 312 310 304 301 301 301 298 290 281 272 264 255 246 241 237 235 235 235
90 80 185 238 243 156 320 283 222 153 187 236 235 285 300 310 316 326 325 320 319 301 296 317 327 320 316 313 305 306 304 302 297 292 283 277 269 258 247 237 228 228 226 227
119 245 183 249 257 184 257 267 270 186 219 228 277 280 290 291 308 310 306 299 318 319 325 331 320 319 316 315 315 315 311 306 304 297 292 282 272 258 242 231 225 220 219 221
273 258 132 286 348 165 253 262 248 244 253 244 264 276 250 273 294 315 313 312 314 313 319 322 319 319 320 320 318 317 315 313 311 308 299 292 283 262 234 217 211 210 209 215
196 212 40 271 313 339 341 235 222 261 226 192 249 247 312 313 319 319 309 302 298 298 306 312 317 318 318 319 318 315 318 318 322 318 317 317 314 297 205 193 193 198 202 207
175 155 152 263 352 1 244 241 184 211 253 211 269 276 271 272 276 294 250 257 296 293 308 319 321 318 321 320 326 325 326 330 330 329 333 335 339 344 125 164 179 186 197 202
176 146 263 204 198 286 319 274 203 159 279 197 253 293 280 277 300 298 237 234 266 272 285 284 295 307 316 327 329 331 332 336 340 341 341 343 350 353 61 171 178 184 190 192
90 134 164 70 243 232 229 258 162 111 291 219 185 264 280 323 336 282 307 284 298 278 277 296 319 314 331 335 333 337 343 340 347 340 343 347 359 5 11 34 178 172 179 190
340 356 213 242 257 273 232 243 126 85 247 248 193 241 264 265 229 291 308 307 251 264 293 303 318 322 324 334 339 345 349 349 334 342 349 358 0 10 16 29 44 84 107 109
176 158 218 106 89 277 200 132 176 222 284 233 250 236 257 257 283 281 291 298 304 302 308 354 331 337 319 340 349 349 354 338 337 347 356 360 4 7 13 31 37 47 58 72
292 191 196 184 217 226 215 231 243 190 221 252 239 249 265 297 301 311 311 313 306 302 299 322 337 332 327 342 357 349 342 341 341 354 359 359 7 13 17 25 38 36 40 54
252 176 223 46 250 253 265 249 231 187 232 283 288 304 298 301 310 307 313 317 317 306 301 309 356 336 3 343 350 349 341 340 347 1 5 1 10 8 14 22 25 39 44 42
199 172 208 253 276 278 279 269 143 317 245 292 291 272 295 308 306 300 317 321 315 307 300 307 327 344 355 343 346 352 346 347 356 4 6 11 8 10 8 14 25 27 33 38
211 235 204 241 255 237 264 161 137 291 317 322 317 312 308 306 312 321 309 313 313 317 298 297 312 333 343 25 348 348 350 352 4 13 5 7 9 7 9 11 17 32 34 34